Willmar, MN

1:30 AM CDT on May 27, 2017 (GMT -0500)
Willmar

Weather History for KBDH - September, 2013

Change the Weather History Date:

Sunday, September 1, 2013

  Actual Average (KBBB) Record (KBBB)
Temperature  
Mean Temperature 61 °F -  
Max Temperature 69 °F 77 °F 91 °F (1960)
Min Temperature 53 °F 55 °F 41 °F (1972)
Degree Days  
Heating Degree Days 4    
Growing Degree Days 11 (Base 50)    
Moisture  
Dew Point 57 °F    
Average Humidity 78    
Maximum Humidity 94    
Minimum Humidity 64    
Precipitation  
Precipitation 0.00 in - - ()
Sea Level Pressure  
Sea Level Pressure 29.94 in    
Wind  
Wind Speed 10 mph (NW)    
Max Wind Speed 21 mph    
Max Gust Speed 25 mph    
Visibility 10 miles    
Events      
Averages and records for this station are not official NWS values.
T = Trace of Precipitation, MM = Missing Value Source: NWS Daily Summary

Daily Weather History Graph

Daily Weather History Graph

Search for Another Location

Airport or City:

Trip Planner

Search our weather history database for the weather conditions in past years. The results will help you decide how hot, cold, wet, or windy it might be!

Date:

Astronomy

Sep. 01, 2013 Rise Set
Actual Time 6:42 AM CDT 7:57 PM CDT
Civil Twilight 6:12 AM CDT 8:27 PM CDT
Nautical Twilight 5:35 AM CDT 9:03 PM CDT
Astronomical Twilight 4:56 AM CDT 9:42 PM CDT
Moon 2:58 AM CDT (9/1) 5:40 PM CDT (9/1)
Length of Visible Light 14h 15m
Length of Day
13h 14m
Waning Crescent, 13% of the Moon is Illuminated
Sep 1
Waning Crescent
Sep 5
New
Sep 12
First Quarter
Sep 19
Full
Sep 26
Last Quarter

Hourly Weather History & Observations

Time (CDT) Temp. Dew Point Humidity Pressure Visibility Wind Dir Wind Speed Gust Speed Precip Events Conditions
12:15 AM 68.0 °F 64.4 °F 88% 29.85 in 10.0 mi WSW 8.1 mph - N/A   Overcast
12:35 AM 68.0 °F 64.4 °F 88% 29.84 in 10.0 mi WSW 8.1 mph - N/A   Overcast
12:55 AM 69.8 °F 64.4 °F 83% 29.84 in 10.0 mi West 8.1 mph - N/A   Mostly Cloudy
1:15 AM 69.8 °F 62.6 °F 78% 29.84 in 10.0 mi WNW 8.1 mph - N/A   Overcast
1:35 AM 69.8 °F 64.4 °F 83% 29.83 in 10.0 mi WNW 8.1 mph - N/A   Mostly Cloudy
1:55 AM 68.0 °F 62.6 °F 83% 29.83 in 10.0 mi WNW 10.4 mph - N/A   Scattered Clouds
2:15 AM 66.2 °F 62.6 °F 88% 29.83 in 10.0 mi WNW 9.2 mph - N/A   Clear
2:35 AM 66.2 °F 60.8 °F 83% 29.83 in 10.0 mi NW 9.2 mph - N/A   Clear
2:55 AM 66.2 °F 60.8 °F 83% 29.83 in 10.0 mi NW 9.2 mph - N/A   Clear
3:15 AM 64.4 °F 59.0 °F 83% 29.84 in 10.0 mi NW 8.1 mph - N/A   Clear
3:35 AM 64.4 °F 57.2 °F 77% 29.85 in 10.0 mi NW 5.8 mph - N/A   Clear
3:55 AM 62.6 °F 57.2 °F 82% 29.85 in 10.0 mi NW 5.8 mph - N/A   Clear
4:15 AM 62.6 °F 57.2 °F 82% 29.86 in 10.0 mi WNW 4.6 mph - N/A   Clear
4:35 AM 62.6 °F 57.2 °F 82% 29.86 in 10.0 mi NW 5.8 mph - N/A   Clear
4:55 AM 60.8 °F 57.2 °F 88% 29.86 in 10.0 mi WNW 3.5 mph - N/A   Clear
5:15 AM 60.8 °F 55.4 °F 82% 29.86 in 10.0 mi NW 4.6 mph - N/A   Clear
5:34 AM 60.8 °F 57.2 °F 88% 29.87 in 10.0 mi NW 8.1 mph - N/A   Clear
5:55 AM 60.8 °F 57.2 °F 88% 29.87 in 10.0 mi NW 5.8 mph - N/A   Clear
6:15 AM 60.8 °F 55.4 °F 82% 29.87 in 10.0 mi NW 5.8 mph - N/A   Clear
6:35 AM 60.8 °F 55.4 °F 82% 29.88 in 10.0 mi NW 6.9 mph - N/A   Clear
6:55 AM 60.8 °F 55.4 °F 82% 29.88 in 10.0 mi WNW 6.9 mph - N/A   Clear
7:15 AM 60.8 °F 55.4 °F 82% 29.89 in 10.0 mi WNW 6.9 mph - N/A   Clear
7:35 AM 60.8 °F 55.4 °F 82% 29.89 in 10.0 mi West 6.9 mph - N/A   Clear
7:55 AM 60.8 °F 57.2 °F 88% 29.90 in 10.0 mi West 6.9 mph - N/A   Clear
8:15 AM 60.8 °F 57.2 °F 88% 29.91 in 10.0 mi WNW 6.9 mph - N/A   Clear
8:35 AM 62.6 °F 59.0 °F 88% 29.92 in 10.0 mi WNW 6.9 mph - N/A   Clear
8:55 AM 64.4 °F 59.0 °F 83% 29.92 in 10.0 mi WNW 11.5 mph - N/A   Scattered Clouds
9:15 AM 64.4 °F 59.0 °F 83% 29.93 in 10.0 mi NW 13.8 mph - N/A   Scattered Clouds
9:35 AM 64.4 °F 59.0 °F 83% 29.93 in 10.0 mi WNW 11.5 mph 17.3 mph N/A   Mostly Cloudy
9:55 AM 66.2 °F 60.8 °F 83% 29.94 in 10.0 mi NW 17.3 mph 21.9 mph N/A   Mostly Cloudy
10:14 AM 64.4 °F 57.2 °F 77% 29.94 in 10.0 mi NW 18.4 mph 24.2 mph N/A   Overcast
10:35 AM 66.2 °F 57.2 °F 73% 29.95 in 10.0 mi WNW 15.0 mph 19.6 mph N/A   Overcast
10:55 AM 66.2 °F 57.2 °F 73% 29.95 in 10.0 mi NW 15.0 mph 19.6 mph N/A   Overcast
11:14 AM 66.2 °F 57.2 °F 73% 29.96 in 10.0 mi WNW 16.1 mph - N/A   Overcast
11:35 AM 66.2 °F 55.4 °F 68% 29.97 in 10.0 mi WNW 15.0 mph - N/A   Overcast
11:55 AM 66.2 °F 55.4 °F 68% 29.97 in 10.0 mi NW 18.4 mph 23.0 mph N/A   Overcast
12:14 PM 66.2 °F 57.2 °F 73% 29.97 in 10.0 mi NW 16.1 mph 20.7 mph N/A   Overcast
12:35 PM 66.2 °F 57.2 °F 73% 29.97 in 10.0 mi NW 17.3 mph 21.9 mph N/A   Overcast
12:55 PM 68.0 °F 55.4 °F 64% 29.97 in 10.0 mi NW 17.3 mph - N/A   Overcast
1:15 PM 68.0 °F 55.4 °F 64% 29.97 in 10.0 mi NW 19.6 mph 24.2 mph N/A   Overcast
1:35 PM 66.2 °F 57.2 °F 73% 29.98 in 10.0 mi NW 19.6 mph 25.3 mph N/A   Overcast
1:55 PM 66.2 °F 55.4 °F 68% 29.98 in 10.0 mi NW 20.7 mph - N/A   Overcast
2:15 PM 66.2 °F 55.4 °F 68% 29.98 in 10.0 mi NNW 18.4 mph - N/A   Overcast
2:35 PM 66.2 °F 55.4 °F 68% 29.98 in 10.0 mi NW 16.1 mph - N/A   Overcast
2:55 PM 66.2 °F 55.4 °F 68% 29.98 in 10.0 mi NW 18.4 mph 24.2 mph N/A   Overcast
3:15 PM 66.2 °F 55.4 °F 68% 29.98 in 10.0 mi NW 18.4 mph 25.3 mph N/A   Overcast
3:35 PM 66.2 °F 55.4 °F 68% 29.98 in 10.0 mi NW 15.0 mph - N/A   Overcast
3:55 PM 66.2 °F 55.4 °F 68% 29.97 in 10.0 mi NNW 17.3 mph - N/A   Overcast
4:15 PM 66.2 °F 55.4 °F 68% 29.97 in 10.0 mi NW 18.4 mph 23.0 mph N/A   Overcast
4:35 PM 66.2 °F 55.4 °F 68% 29.98 in 10.0 mi NNW 15.0 mph 20.7 mph N/A   Overcast
4:55 PM 66.2 °F 55.4 °F 68% 29.98 in 10.0 mi NW 17.3 mph - N/A   Overcast
5:15 PM 66.2 °F 55.4 °F 68% 29.99 in 10.0 mi NW 16.1 mph - N/A   Overcast
5:35 PM 66.2 °F 55.4 °F 68% 29.99 in 10.0 mi NW 16.1 mph - N/A   Overcast
5:55 PM 66.2 °F 55.4 °F 68% 29.99 in 10.0 mi NW 11.5 mph - N/A   Overcast
6:15 PM 66.2 °F 55.4 °F 68% 30.00 in 10.0 mi NW 12.7 mph - N/A   Overcast
6:35 PM 66.2 °F 55.4 °F 68% 30.00 in 10.0 mi NW 11.5 mph - N/A   Overcast
6:55 PM 64.4 °F 55.4 °F 73% 30.00 in 10.0 mi WNW 10.4 mph - N/A   Mostly Cloudy
7:15 PM 64.4 °F 55.4 °F 73% 30.00 in 10.0 mi WNW 8.1 mph - N/A   Mostly Cloudy
7:35 PM 62.6 °F 55.4 °F 77% 30.00 in 10.0 mi NW 6.9 mph - N/A   Scattered Clouds
7:55 PM 62.6 °F 53.6 °F 72% 30.00 in 10.0 mi NW 11.5 mph - N/A   Clear
8:14 PM 60.8 °F 53.6 °F 77% 30.01 in 10.0 mi NW 10.4 mph - N/A   Clear
8:35 PM 59.0 °F 53.6 °F 82% 30.01 in 10.0 mi NW 9.2 mph - N/A   Clear
8:55 PM 59.0 °F 53.6 °F 82% 30.03 in 10.0 mi NW 8.1 mph - N/A   Clear
9:14 PM 57.2 °F 53.6 °F 88% 30.03 in 10.0 mi WNW 6.9 mph - N/A   Clear
9:35 PM 57.2 °F 53.6 °F 88% 30.03 in 10.0 mi WNW 5.8 mph - N/A   Clear
9:55 PM 57.2 °F 53.6 °F 88% 30.03 in 10.0 mi WNW 8.1 mph - N/A   Clear
10:14 PM 55.4 °F 53.6 °F 94% 30.04 in 10.0 mi NW 6.9 mph - N/A   Clear
10:35 PM 55.4 °F 51.8 °F 88% 30.04 in 10.0 mi NW 4.6 mph - N/A   Clear
10:55 PM 55.4 °F 51.8 °F 88% 30.05 in 10.0 mi WNW 4.6 mph - N/A   Clear
11:14 PM 55.4 °F 51.8 °F 88% 30.05 in 10.0 mi NW 4.6 mph - N/A   Clear
11:35 PM 53.6 °F 50.0 °F 88% 30.05 in 10.0 mi NNW 3.5 mph - N/A   Clear
11:55 PM 53.6 °F 50.0 °F 88% 30.05 in 10.0 mi NW 3.5 mph - N/A   Clear